Stündliche Wetter Bolshie Ermaki

Heute, 21 April, Mittwoch

Zeit Temperatur Niederschläge Wind Luftdruck Luftfeuchtigkeit
00:00 +2°C° 0 mm 2 m/S 737 mmHg 97%
01:00 +2°C° 0 mm 2 m/S 737 mmHg 97%
02:00 +2°C° 0 mm 2 m/S 736 mmHg 97%
03:00 +2°C° 0.1 mm 2 m/S 736 mmHg 97%
04:00 +2°C° 0.1 mm 2 m/S 735 mmHg 97%
05:00 +2°C° 0.1 mm 2 m/S 734 mmHg 97%
06:00 +2°C° 0 mm 2 m/S 734 mmHg 97%
07:00 +3°C° 0 mm 2 m/S 734 mmHg 97%
08:00 +3°C° 0 mm 2 m/S 734 mmHg 97%
09:00 +3°C° 0 mm 2 m/S 735 mmHg 95%
10:00 +2°C° 0 mm 3 m/S 735 mmHg 94%
11:00 +3°C° 0 mm 3 m/S 735 mmHg 93%
12:00 +4°C° 0.1 mm 3 m/S 735 mmHg 87%
13:00 +4°C° 0.1 mm 3 m/S 736 mmHg 82%
14:00 +5°C° 0.1 mm 3 m/S 736 mmHg 76%
15:00 +6°C° 0 mm 2 m/S 736 mmHg 77%
16:00 +6°C° 0 mm 2 m/S 736 mmHg 77%
17:00 +7°C° 0 mm 2 m/S 737 mmHg 78%
18:00 +6°C° 0 mm 2 m/S 737 mmHg 81%
19:00 +5°C° 0 mm 2 m/S 737 mmHg 84%
20:00 +5°C° 0 mm 2 m/S 738 mmHg 88%
21:00 +4°C° 0 mm 2 m/S 738 mmHg 89%
22:00 +4°C° 0 mm 2 m/S 738 mmHg 90%
23:00 +4°C° 0 mm 2 m/S 738 mmHg 91%

Morgen, 22 April, Donnerstag

Zeit Temperatur Niederschläge Wind Luftdruck Luftfeuchtigkeit
00:00 +3°C° 0 mm 2 m/S 739 mmHg 92%
01:00 +3°C° 0 mm 2 m/S 739 mmHg 93%
02:00 +2°C° 0 mm 2 m/S 739 mmHg 95%
03:00 +2°C° 0 mm 2 m/S 739 mmHg 95%
04:00 +2°C° 0 mm 2 m/S 739 mmHg 96%
05:00 +2°C° 0 mm 2 m/S 739 mmHg 97%
06:00 +4°C° 0 mm 2 m/S 740 mmHg 90%
07:00 +4°C° 0 mm 3 m/S 740 mmHg 84%
08:00 +7°C° 0 mm 3 m/S 740 mmHg 78%
09:00 +7°C° 0 mm 4 m/S 740 mmHg 73%
10:00 +10°C° 0 mm 4 m/S 740 mmHg 68%
11:00 +12°C° 0 mm 5 m/S 740 mmHg 63%
12:00 +12°C° 0.2 mm 5 m/S 740 mmHg 60%
13:00 +13°C° 0.2 mm 5 m/S 740 mmHg 58%
14:00 +13°C° 0.2 mm 5 m/S 740 mmHg 56%
15:00 +13°C° 0.3 mm 5 m/S 740 mmHg 60%
16:00 +12°C° 0.3 mm 5 m/S 739 mmHg 65%
17:00 +12°C° 0.3 mm 4 m/S 739 mmHg 70%
18:00 +11°C° 0.3 mm 4 m/S 739 mmHg 77%
19:00 +9°C° 0.3 mm 3 m/S 739 mmHg 84%
20:00 +8°C° 0.3 mm 3 m/S 740 mmHg 91%
21:00 +7°C° 0 mm 3 m/S 740 mmHg 92%
22:00 +7°C° 0 mm 3 m/S 739 mmHg 92%
23:00 +7°C° 0 mm 3 m/S 739 mmHg 93%

übermorgen, 23 April, Freitag

Zeit Temperatur Niederschläge Wind Luftdruck Luftfeuchtigkeit
00:00 +7°C° 0 mm 3 m/S 739 mmHg 92%
01:00 +7°C° 0 mm 3 m/S 739 mmHg 92%
02:00 +6°C° 0 mm 4 m/S 739 mmHg 92%
03:00 +6°C° 0 mm 4 m/S 739 mmHg 92%
04:00 +6°C° 0 mm 4 m/S 739 mmHg 92%
05:00 +6°C° 0 mm 4 m/S 739 mmHg 93%
06:00 +6°C° 0.1 mm 4 m/S 740 mmHg 91%
07:00 +7°C° 0.1 mm 4 m/S 740 mmHg 90%
08:00 +7°C° 0.1 mm 4 m/S 740 mmHg 88%
09:00 +8°C° 0.2 mm 3 m/S 740 mmHg 89%
10:00 +7°C° 0.2 mm 3 m/S 740 mmHg 89%
11:00 +6°C° 0.2 mm 2 m/S 740 mmHg 90%
12:00 +6°C° 1.2 mm 2 m/S 740 mmHg 91%
13:00 +5°C° 1.2 mm 2 m/S 740 mmHg 92%
14:00 +4°C° 1.2 mm 2 m/S 740 mmHg 94%
15:00 +4°C° 0.4 mm 2 m/S 740 mmHg 94%
16:00 +4°C° 0.4 mm 2 m/S 740 mmHg 94%
17:00 +4°C° 0.4 mm 2 m/S 740 mmHg 94%
18:00 +4°C° 0.6 mm 2 m/S 740 mmHg 95%
19:00 +4°C° 0.6 mm 2 m/S 740 mmHg 95%
20:00 +4°C° 0.6 mm 2 m/S 739 mmHg 96%
21:00 +4°C° 0.4 mm 2 m/S 739 mmHg 96%
22:00 +4°C° 0.4 mm 2 m/S 739 mmHg 95%
23:00 +4°C° 0.4 mm 2 m/S 738 mmHg 95%

24 April, Samstag

Zeit Temperatur Niederschläge Wind Luftdruck Luftfeuchtigkeit
00:00 +3°C° 0.8 mm 2 m/S 738 mmHg 95%
01:00 +3°C° 0.8 mm 2 m/S 738 mmHg 95%
02:00 +3°C° 0.8 mm 2 m/S 738 mmHg 96%
03:00 +3°C° 0.2 mm 2 m/S 738 mmHg 95%
04:00 +4°C° 0.2 mm 1 m/S 737 mmHg 95%
05:00 +4°C° 0.2 mm 1 m/S 737 mmHg 94%
06:00 +4°C° 0.1 mm 2 m/S 737 mmHg 89%
07:00 +4°C° 0.1 mm 2 m/S 737 mmHg 84%
08:00 +4°C° 0.1 mm 3 m/S 737 mmHg 78%
09:00 +5°C° 0.1 mm 3 m/S 737 mmHg 70%
10:00 +7°C° 0.1 mm 3 m/S 737 mmHg 62%
11:00 +7°C° 0.1 mm 4 m/S 737 mmHg 55%
12:00 +7°C° 0.2 mm 4 m/S 737 mmHg 54%
13:00 +7°C° 0.2 mm 4 m/S 737 mmHg 53%
14:00 +7°C° 0.2 mm 4 m/S 737 mmHg 52%
15:00 +6°C° 0.3 mm 4 m/S 737 mmHg 57%
16:00 +6°C° 0.3 mm 4 m/S 737 mmHg 62%
17:00 +5°C° 0.3 mm 4 m/S 737 mmHg 66%
18:00 +4°C° 0 mm 3 m/S 737 mmHg 72%
19:00 +2°C° 0 mm 3 m/S 738 mmHg 79%
20:00 +1°C° 0 mm 3 m/S 738 mmHg 85%
21:00 +1°C° 0 mm 3 m/S 738 mmHg 87%
22:00 +1°C° 0 mm 2 m/S 738 mmHg 90%
23:00 +1°C° 0 mm 2 m/S 738 mmHg 93%

25 April, Sonntag

Zeit Temperatur Niederschläge Wind Luftdruck Luftfeuchtigkeit
00:00 -1°C° 0 mm 2 m/S 738 mmHg 94%
01:00 -1°C° 0 mm 2 m/S 738 mmHg 95%
02:00 -1°C° 0 mm 2 m/S 738 mmHg 96%
03:00 -1°C° 0 mm 2 m/S 738 mmHg 96%
04:00 -1°C° 0 mm 2 m/S 738 mmHg 95%
05:00 -1°C° 0 mm 2 m/S 738 mmHg 95%
06:00 +1°C° 0 mm 2 m/S 738 mmHg 86%
07:00 +2°C° 0 mm 3 m/S 739 mmHg 78%
08:00 +3°C° 0 mm 3 m/S 739 mmHg 70%
09:00 +4°C° 0.3 mm 3 m/S 739 mmHg 67%
10:00 +4°C° 0.3 mm 3 m/S 739 mmHg 65%
11:00 +4°C° 0.3 mm 3 m/S 739 mmHg 63%
12:00 +5°C° 0.5 mm 4 m/S 739 mmHg 61%
13:00 +5°C° 0.5 mm 4 m/S 739 mmHg 59%
14:00 +6°C° 0.5 mm 4 m/S 739 mmHg 57%
15:00 +5°C° 0.2 mm 4 m/S 739 mmHg 57%
16:00 +5°C° 0.2 mm 3 m/S 739 mmHg 57%
17:00 +5°C° 0.2 mm 3 m/S 739 mmHg 57%
18:00 +5°C° 0 mm 2 m/S 739 mmHg 64%
19:00 +3°C° 0 mm 2 m/S 740 mmHg 70%
20:00 +2°C° 0 mm 2 m/S 740 mmHg 77%
21:00 +1°C° 0 mm 2 m/S 740 mmHg 80%
22:00 +1°C° 0 mm 2 m/S 740 mmHg 84%
23:00 +1°C° 0 mm 2 m/S 740 mmHg 87%

26 April, Montag

Zeit Temperatur Niederschläge Wind Luftdruck Luftfeuchtigkeit
00:00 +1°C° 0 mm 2 m/S 740 mmHg 90%
01:00 -1°C° 0 mm 2 m/S 740 mmHg 92%
02:00 +1°C° 0 mm 1 m/S 740 mmHg 94%
03:00 +1°C° 0 mm 1 m/S 740 mmHg 94%
04:00 +1°C° 0 mm 1 m/S 740 mmHg 93%
05:00 +1°C° 0 mm 1 m/S 740 mmHg 92%
06:00 +2°C° 0 mm 1 m/S 740 mmHg 84%
07:00 +3°C° 0 mm 2 m/S 740 mmHg 77%
08:00 +5°C° 0 mm 2 m/S 740 mmHg 69%
09:00 +6°C° 0.2 mm 2 m/S 740 mmHg 63%
10:00 +7°C° 0.2 mm 2 m/S 740 mmHg 57%
11:00 +8°C° 0.2 mm 2 m/S 740 mmHg 51%
12:00 +8°C° 0.2 mm 2 m/S 740 mmHg 48%
13:00 +9°C° 0.2 mm 2 m/S 740 mmHg 46%
14:00 +10°C° 0.2 mm 1 m/S 740 mmHg 43%
15:00 +10°C° 0 mm 1 m/S 739 mmHg 45%
16:00 +10°C° 0 mm 1 m/S 739 mmHg 47%
17:00 +9°C° 0 mm 0 m/S 739 mmHg 49%
18:00 +7°C° 0 mm 0 m/S 739 mmHg 56%
19:00 +7°C° 0 mm 1 m/S 739 mmHg 62%
20:00 +5°C° 0 mm 1 m/S 739 mmHg 68%
21:00 +5°C° 0 mm 1 m/S 739 mmHg 71%
22:00 +4°C° 0 mm 1 m/S 739 mmHg 73%
23:00 +3°C° 0 mm 2 m/S 739 mmHg 76%
Mehr zeigen

Wir brauchen deine Erlaubnis

Meteoprog und unser Service Anbieter werden persönliche Daten aufbewahren, so wie Cookies, Geräte Bezeichnung oder ähnliche Technologien von deinem Gerät und Prozess, so wie Persönliche Daten Inhalte und Werbungen, genauso wie social Media und den Verkehr zu analysieren.

  • Aufbewahrung und/oder Zugang zu deiner Geräte Informationen.

    Cookies, Geräte Bezeichnung oder andere Informationen, können aufbewahrt oder Zugang zu deinem Gerät erhalten, für den Grund, der oben angegeben wird.

  • Personalisierte Werbung und Inhalte, Messungen, Einblick in das Publikum und Produkt Entwicklung.

    Werbungen und Inhalte können personalisiert werden, basierend auf ein Profil. Mehr Daten können besser personalisierte Werbungen und Inhalte hinzufügen. Werbung und Inhalte können gezeigt und gemessen werden. Einblicke über das Publikum, welche die Werbung gesehen haben und den Inhalt, können abgeleitet werden. So wie Daten können genutzt werden, um es zu verbessern oder die Benutzer Erfahrung zu verbessern das System und die Software.

Wenn du “Ich stimme zu” klickst, erlaubst du uns, die Cookies zu benutzen die Geräte Bezeichnung, den Web oder ähnliche Technologien zu benutzen. Deine Settings, können in deinem Gerät bei deinem Browser geändert werden.

Für den bestimmten Zweck, berechtigten Interessen beruhen darauf, mehr als auf den Inhalt. Du kannst mehr darüber in unseren Privaten und Cookie Politik lesen.